STARLINK-37348, 68737

Orbit data source: Space-Track

STARLINK-37348, 68737 is a payload satellite owned by SpaceX/Seattle (US) in SSO that was launched on Wed, 15 Apr 2026 UTC via an FALCON 9 launch vehicle from the Air Force Western Test Range (AFWTR). Payload-class satellites include a variety of spacecraft equipped with specific instruments for various scientific and technological missions. These include communications satellites like Starlink; space stations such as the ISS; scientific satellites like the Hubble; Earth observation satellites from companies like Planet Labs, Umbra, and HawkEye 360; GPS; miniature CubeSats for education and research; and military/defense satellites.

Loading next visibility...
Identifier
68737, 2026-082K
Orbit
SSO
Country
Flag of USUS
Related business
Manufacturer
SpaceX/Seattle
Mission
Operational spacecraft
Bus & Motor
STARLINK V2MO, Unknown motor
Mass
575 kg wet, ~530 kg dry
Launch date (UTC)
2026-04-15 (2 months ago)
Launch vehicle
FALCON 9
Launch site
Air Force Western Test Range (AFWTR)
Object type
Payload
Rocket body
Debris
Shape & HBR
Unknown shape, 14.5 m
Radar Cross Section
Large (>1 m²)

Expand to show TLE details & history
Last TLE update: 1 day ago

TLE from 1 day ago
0 STARLINK-37348
1 68737U 26082K   26170.57360979  .00014856  00000-0  46122-3 0  9993
2 68737  97.2849  34.0293 0001876 101.2655 258.8798 15.33470032 10067
Epoch: 2026-06-19T13:45Z
TLE epoch observation values (Epoch: 2026-06-19T13:45:59.885Z)
Latitude
-0.00011°
Longitude
-80.27085°
Altitude
468.829 km
Speed
7.632 km/s
True Right ascension
02h 16m 07s
True Declination
0° 00' 00"
Sunlit
Object was in daylight at epoch
Visualization orbit readout
Latitude
Unknown
Longitude
Unknown
Altitude
Unknown
Speed
Unknown
Apparent Right ascension
Unknown
Apparent Declination
Unknown
Sunlit
N/A
Visualization observer readout
Local Sidereal Time
07:17:55
Azimuth
Unknown
Elevation
Unknown
Doppler factor
Unknown
Orbital elements
Apogee altitude
463.695 km
Perigee altitude
461.128 km
Semi-major axis
6,840.548 km
Eccentricity
0.00019
Inclination
97.2849°
RAAN
34.0293°
Arg. of periapsis
101.2655°
True anomaly
258.85871°
Mean anomaly
258.8798°
Eccentric anomaly
258.86925°
Mean motion
3.83625 °/min
Orbital period
93.84 mins
BSTAR
0.00046122
Loading maneuver chart data...
Computing Atmospheric mass density...
Loading historical data...
Loading historical data...
Loading historical data...
Loading historical data...
Loading historical data...
Loading historical data...
Loading historical data...

Documentation

Showing up to 5 results
|